Date String (YYYY-MM-DD hh:mm:ss) UTC,Instrument flags,absolute air pressure of the measurement (hPa),sample flow rate (lpm),inlet stack bypass flow (lpm),air temperature of the measurement (°C),ambient temperature measured by the external sensor (°C),aerosol sample conditioner tube jacket temperature (°C),OPC LED temperature (°C),internal box temperature (°C),relative humidity of the measurement (%),span deviation,mass concentration of particles derived from Lorenz-Mie calculation of OPC scattering (μg/m³),mass concentration of particles derived from Lorenz-Mie calculation of OPC scattering (μg/m³),mass concentration of particles derived from Lorenz-Mie calculation of OPC scattering (μg/m³)
DateTimeUTC,F1_M11,P_M11,Q1_M11,Q2_M11,T1_M11,T2_M11,T3_M11,T4_M11,T5_M11,U1_M11,ZSPAN_M11,X2_M11,X0_M11,X1_M11
2023-06-03 12:00:00,SystemResetWarning,0830.0,5.00,000.00,030.4,028.8,000.0,038.8,032.0,28.7,0000.9,0006.92,0011.92,0006.18
2023-06-03 12:01:00,SystemResetWarning,0830.1,4.99,000.00,030.4,028.8,000.0,038.8,032.0,28.6,0000.5,0006.91,0011.90,0006.16
2023-06-03 12:02:00,SystemResetWarning,0830.1,4.99,000.00,030.4,028.8,000.0,038.8,032.0,28.7,0000.2,0006.97,0011.88,0006.18
2023-06-03 12:03:00,SystemResetWarning,0830.1,5.00,000.00,030.4,028.8,000.0,038.8,032.0,28.7,0000.3,0006.96,0011.79,0006.18
2023-06-03 12:04:00,SystemResetWarning,0830.1,5.00,000.00,030.4,028.8,000.0,038.8,032.0,28.7,0000.5,0006.94,0011.71,0006.18
2023-06-03 12:05:00,SystemResetWarning,0830.2,5.01,000.00,030.4,028.8,000.0,038.8,032.0,28.7,0000.8,0006.94,0011.85,0006.20
2023-06-03 12:06:00,SystemResetWarning,0830.2,5.00,000.00,030.4,028.9,000.0,038.8,032.0,28.7,0000.9,0006.97,0012.24,0006.22
2023-06-03 12:07:00,SystemResetWarning,0830.2,4.99,000.00,030.4,028.8,000.0,038.8,032.0,28.7,0001.0,0006.99,0012.31,0006.21
2023-06-03 12:08:00,SystemResetWarning,0830.2,5.00,000.00,030.4,028.8,000.0,038.8,032.0,28.6,0000.6,0006.97,0012.12,0006.18
2023-06-03 12:09:00,SystemResetWarning,0830.3,5.00,000.00,030.4,028.8,000.0,038.8,032.0,28.6,0000.3,0006.92,0011.08,0006.13
2023-06-03 12:10:00,SystemResetWarning,0830.2,5.00,000.00,030.4,028.8,000.0,038.8,032.0,28.6,-000.1,0006.90,0011.31,0006.08
2023-06-03 12:11:00,SystemResetWarning,0830.2,5.00,000.00,030.4,028.8,000.0,038.8,032.0,28.6,0000.0,0006.89,0011.61,0006.06
2023-06-03 12:12:00,SystemResetWarning,0830.2,5.00,000.00,030.4,028.8,000.0,038.8,032.0,28.6,0000.4,0006.83,0011.51,0006.03
2023-06-03 12:13:00,SystemResetWarning,0830.3,5.00,000.00,030.4,028.8,000.0,038.8,032.0,28.6,0000.9,0006.77,0011.49,0006.03
2023-06-03 12:14:00,SystemResetWarning,0830.3,5.00,000.00,030.4,028.8,000.0,038.8,032.0,28.6,0001.1,0006.76,0011.50,0006.03
2023-06-03 12:15:00,SystemResetWarning,0830.3,5.00,000.00,030.4,028.8,000.0,038.8,032.0,28.6,0001.1,0006.76,0011.59,0006.02
2023-06-03 12:16:00,SystemResetWarning,0830.3,5.00,000.00,030.4,028.9,000.0,038.8,032.0,28.6,0000.7,0006.73,0011.79,0005.98
2023-06-03 12:17:00,SystemResetWarning,0830.3,5.01,000.00,030.4,028.9,000.0,038.8,032.0,28.6,0000.6,0006.65,0011.37,0005.90
2023-06-03 12:18:00,SystemResetWarning,0830.3,5.00,000.00,030.4,028.8,000.0,038.8,032.0,28.6,0000.6,0006.57,0011.58,0005.84
2023-06-03 12:19:00,SystemResetWarning,0830.4,5.00,000.00,030.4,028.8,000.0,038.8,032.0,28.7,0000.1,0006.54,0012.48,0005.85
2023-06-03 12:20:00,SystemResetWarning,0830.5,5.00,000.00,030.4,028.8,000.0,038.8,032.0,28.8,-000.1,0006.58,0012.55,0005.91
2023-06-03 12:21:00,SystemResetWarning,0830.4,5.00,000.00,030.4,028.8,000.0,038.8,032.0,28.8,-000.1,0006.59,0012.27,0005.96
2023-06-03 12:22:00,SystemResetWarning,0830.4,5.00,000.00,030.4,028.8,000.0,038.8,032.0,28.8,-000.1,0006.63,0012.32,0005.97
2023-06-03 12:23:00,SystemResetWarning,0830.4,5.00,000.00,030.4,028.8,000.0,038.8,032.0,28.8,-000.1,0006.70,0012.46,0006.00
2023-06-03 12:24:00,SystemResetWarning,0830.4,5.00,000.00,030.4,028.8,000.0,038.8,032.0,28.8,-000.2,0006.67,0012.36,0005.96
2023-06-03 12:25:00,SystemResetWarning,0830.4,5.00,000.00,030.4,028.8,000.0,038.8,032.0,28.8,-000.4,0006.68,0012.41,0005.93
2023-06-03 12:26:00,SystemResetWarning,0830.4,5.00,000.00,030.4,028.8,000.0,038.8,032.0,28.8,-000.7,0006.66,0012.41,0005.89
2023-06-03 12:27:00,SystemResetWarning,0830.5,5.00,000.00,030.4,028.8,000.0,038.8,032.0,28.8,-000.5,0006.69,0012.63,0005.90
2023-06-03 12:28:00,SystemResetWarning,0830.5,5.00,000.00,030.4,028.8,000.0,038.8,032.0,28.9,-000.3,0006.75,0012.59,0005.95
2023-06-03 12:29:00,SystemResetWarning,0830.6,5.00,000.00,030.4,028.8,000.0,038.8,032.0,28.9,-000.3,0006.82,0012.35,0006.00
2023-06-03 12:30:00,SystemResetWarning,0830.4,5.01,000.00,030.4,028.8,000.0,038.8,032.0,29.0,0000.2,0006.82,0011.40,0006.01
2023-06-03 12:31:00,SystemResetWarning,0830.5,5.00,000.00,030.4,028.8,000.0,038.8,032.0,29.0,-000.1,0006.82,0011.46,0006.00
2023-06-03 12:32:00,SystemResetWarning,0830.4,5.00,000.00,030.4,028.8,000.0,038.8,032.0,29.1,0000.1,0006.85,0011.53,0006.00
2023-06-03 12:33:00,SystemResetWarning,0830.5,5.00,000.00,030.4,028.8,000.0,038.8,032.0,29.2,0000.4,0006.83,0011.13,0006.01
2023-06-03 12:34:00,SystemResetWarning,0830.5,5.00,000.00,030.4,028.8,000.0,038.8,032.0,29.2,0000.4,0006.82,0011.09,0006.01
2023-06-03 12:35:00,SystemResetWarning,0830.5,5.00,000.00,030.4,028.8,000.0,038.8,032.0,29.1,0000.6,0006.85,0011.35,0006.02
2023-06-03 12:36:00,SystemResetWarning,0830.6,5.00,000.00,030.4,028.8,000.0,038.8,032.0,29.0,0000.8,0006.85,0011.89,0006.03
2023-06-03 12:37:00,SystemResetWarning,0830.6,5.00,000.00,030.4,028.8,000.0,038.8,032.0,29.1,0000.7,0006.88,0011.94,0006.05
2023-06-03 12:38:00,SystemResetWarning,0830.6,5.00,000.00,030.4,028.8,000.0,038.8,032.0,29.2,0000.2,0006.88,0011.62,0006.08
2023-06-03 12:39:00,SystemResetWarning,0830.6,5.01,000.00,030.4,028.8,000.0,038.8,032.0,29.2,0000.5,0006.90,0011.51,0006.09
2023-06-03 12:40:00,SystemResetWarning,0830.6,5.00,000.00,030.4,028.8,000.0,038.8,032.0,29.1,0000.7,0006.88,0011.52,0006.07
2023-06-03 12:41:00,SystemResetWarning,0830.6,5.00,000.00,030.4,028.8,000.0,038.8,032.0,29.1,0000.8,0006.89,0011.54,0006.05
2023-06-03 12:42:00,SystemResetWarning,0830.6,5.00,000.00,030.4,028.8,000.0,038.8,032.0,29.1,0001.0,0006.96,0012.14,0006.06
2023-06-03 12:43:00,SystemResetWarning,0830.7,4.99,000.00,030.4,028.8,000.0,038.8,032.0,29.3,0001.4,0006.98,0012.36,0006.08
2023-06-03 12:44:00,SystemResetWarning,0830.7,4.99,000.00,030.4,028.8,000.0,038.8,032.0,29.2,0001.4,0007.00,0013.39,0006.11
2023-06-03 12:45:00,SystemResetWarning,0830.7,5.01,000.00,030.4,028.8,000.0,038.8,032.0,29.2,0001.2,0006.98,0013.30,0006.11
2023-06-03 12:46:00,SystemResetWarning,0830.7,5.01,000.00,030.4,028.8,000.0,038.8,032.0,29.3,0001.2,0006.97,0013.21,0006.13
2023-06-03 12:47:00,SystemResetWarning,0830.7,4.98,000.00,030.4,028.8,000.0,038.8,032.0,29.3,0001.1,0006.97,0012.75,0006.15
2023-06-03 12:48:00,SystemResetWarning,0830.7,4.98,000.00,030.4,028.8,000.0,038.8,032.0,29.3,0001.0,0006.97,0012.40,0006.17
2023-06-03 12:49:00,SystemResetWarning,0830.7,5.00,000.00,030.4,028.8,000.0,038.8,032.0,29.3,0001.5,0007.00,0012.48,0006.18
2023-06-03 12:50:00,SystemResetWarning,0830.7,5.00,000.00,030.4,028.8,000.0,038.8,032.0,29.3,0001.4,0007.02,0012.96,0006.19
2023-06-03 12:51:00,SystemResetWarning,0830.7,5.00,000.00,030.5,028.8,000.0,038.9,032.0,29.4,0001.0,0007.04,0012.96,0006.21
2023-06-03 12:52:00,SystemResetWarning,0830.6,4.99,000.00,030.5,028.8,000.0,038.9,032.0,29.5,0000.8,0007.07,0013.00,0006.26
2023-06-03 12:53:00,SystemResetWarning,0830.6,5.02,000.00,030.5,028.9,000.0,038.9,032.0,29.5,0001.0,0007.05,0012.49,0006.26
2023-06-03 12:54:00,SystemResetWarning,0830.7,5.01,000.00,030.5,028.9,000.0,038.9,032.0,29.5,0001.1,0007.02,0012.24,0006.25
2023-06-03 12:55:00,SystemResetWarning,0830.7,4.98,000.00,030.5,028.9,000.0,038.9,032.0,29.5,0001.4,0006.98,0011.18,0006.21
2023-06-03 12:56:00,SystemResetWarning,0830.7,5.02,000.00,030.5,028.9,000.0,038.9,032.0,29.5,0001.3,0007.00,0011.27,0006.20
2023-06-03 12:57:00,SystemResetWarning,0830.7,5.01,000.00,030.5,028.9,000.0,038.9,032.0,29.5,0001.2,0007.00,0011.41,0006.16
2023-06-03 12:58:00,SystemResetWarning,0830.7,4.99,000.00,030.5,028.9,000.0,038.9,032.0,29.5,0001.3,0006.95,0011.64,0006.11
2023-06-03 12:59:00,SystemResetWarning,0830.8,5.00,000.00,030.5,028.9,000.0,038.9,032.0,29.4,0001.6,0006.91,0012.03,0006.06
